Theta_e
313 318 319 320 320 319 317 314 314 315 315 317 317 319 320 320 320 318 318 318 315 316 319 319 317 317 318 318 315 314 315 314 313 313 311 310 308 307 306 305 305 305 304 305 306 307 307 307 307 307 307 307 308 308 309 310 310 310 310 310 309 310 310 310 311 312 312 312 314 315 317 319 320 321 321 321 321 322 322 322 322 322 323 323 323 323
314 318 320 321 320 318 317 315 314 315 315 316 317 319 321 321 319 317 317 317 314 315 320 320 317 318 318 318 315 313 314 313 311 311 310 309 307 306 305 304 304 304 304 306 306 307 307 307 307 307 307 307 308 308 308 309 309 309 309 309 309 310 310 311 311 311 312 314 315 315 315 315 315 316 317 318 318 319 320 320 321 321 321 321 321 321
316 318 319 318 316 316 316 315 315 317 317 318 319 319 320 320 318 320 319 317 314 315 321 321 317 317 318 317 314 312 312 311 310 310 308 307 306 305 304 303 304 304 305 306 305 306 306 306 307 307 308 307 307 307 308 308 308 308 308 307 308 308 309 309 310 310 310 313 314 315 315 316 315 315 314 314 313 314 315 316 316 317 318 318 318 318
319 320 317 314 313 315 316 316 317 317 318 320 319 318 320 319 317 321 322 319 316 315 318 319 317 317 317 317 314 310 310 310 309 308 307 306 305 304 303 303 303 303 304 304 305 305 306 306 307 307 307 307 307 308 308 308 308 308 308 308 307 307 307 307 308 307 308 308 309 311 313 314 314 313 312 311 310 309 309 310 310 311 312 312 313 313
321 319 315 314 315 316 317 317 318 317 320 324 322 319 320 320 317 319 321 320 319 321 321 318 320 323 320 318 315 310 309 309 307 307 306 305 304 303 303 302 302 302 303 303 304 305 305 305 306 307 307 307 307 307 308 308 309 308 308 308 308 308 308 307 307 307 307 307 307 307 308 309 309 309 308 308 308 307 307 306 306 306 306 306 307 307
319 316 316 317 318 318 318 320 319 318 320 324 325 321 320 320 319 320 323 323 321 324 323 318 323 330 326 320 318 312 309 308 307 306 305 304 303 303 302 301 301 301 302 302 302 303 304 305 305 306 306 306 306 306 306 307 308 308 308 308 308 308 308 308 307 307 307 307 306 306 306 306 307 307 307 307 306 306 305 305 305 304 304 304 304 304
319 317 318 321 321 320 320 321 321 319 319 322 323 322 323 322 320 323 323 321 322 323 320 317 321 326 323 321 321 314 310 309 307 305 305 303 302 302 301 300 300 300 301 302 302 302 303 304 305 305 305 305 305 304 305 306 307 307 307 307 307 307 307 307 307 307 307 307 306 306 306 306 306 306 306 306 305 305 305 304 304 304 304 304 304 304
318 317 318 320 322 321 321 322 322 320 321 323 321 320 324 322 318 321 319 318 322 321 319 319 318 319 320 321 319 314 310 308 307 305 304 303 302 301 300 300 299 299 299 301 301 301 301 303 303 304 304 304 304 304 305 306 306 307 307 307 306 306 306 306 306 306 306 306 306 306 305 305 305 305 305 305 305 305 304 304 304 304 303 303 303 303
317 318 321 321 321 321 324 325 323 321 321 324 321 316 318 317 315 319 316 317 320 318 319 322 317 317 324 325 316 311 312 309 307 306 304 303 302 301 300 299 299 298 298 299 300 300 300 301 302 303 304 305 304 304 304 305 306 306 306 306 305 305 305 305 305 305 305 305 305 305 305 305 305 304 304 304 304 304 304 305 304 304 303 303 303 303
317 316 319 322 322 323 326 324 322 324 320 318 317 316 319 318 316 317 315 317 318 317 320 322 319 318 325 330 318 311 314 311 307 306 304 302 302 300 300 299 298 298 298 298 299 299 299 300 301 303 304 305 304 304 304 305 305 305 305 305 305 304 304 304 304 304 304 304 304 304 304 304 304 304 304 303 303 303 303 304 304 304 303 303 303 303
315 311 312 318 319 320 322 317 315 318 315 313 316 320 323 322 320 318 319 321 317 319 325 322 320 317 321 332 324 313 315 312 307 306 303 302 301 300 300 299 298 298 297 298 299 299 300 301 302 303 304 303 303 304 304 304 304 305 304 304 304 304 303 303 303 303 303 303 303 303 302 302 302 303 303 303 303 303 303 303 303 303 303 302 302 302
315 313 313 314 313 314 316 314 312 314 313 314 320 321 322 325 325 320 321 322 318 324 331 324 321 317 318 329 325 313 312 310 308 306 303 301 300 300 299 298 298 298 298 299 300 300 301 302 303 303 303 303 304 304 304 304 304 304 304 303 303 303 302 302 302 302 302 302 302 301 301 301 301 301 301 301 301 302 302 302 302 302 302 302 302 301
319 320 315 313 312 312 316 317 316 319 318 317 319 320 322 325 324 321 321 321 320 326 329 323 320 319 320 322 316 309 308 308 307 304 302 301 300 299 299 298 297 298 299 300 301 302 303 303 304 303 304 303 303 303 303 303 303 303 303 302 302 302 301 301 301 301 301 300 301 301 301 301 300 300 300 299 299 299 300 300 300 301 301 301 301 301
323 323 315 314 315 313 315 317 319 322 318 315 317 320 324 322 319 321 321 318 319 322 323 318 316 319 323 317 308 304 304 304 304 302 301 301 299 299 298 298 298 298 300 301 302 303 303 303 303 303 303 302 302 302 301 301 301 301 301 301 301 300 300 300 300 300 300 300 300 300 300 300 300 300 299 299 298 298 298 298 298 299 299 299 300 300
323 324 320 319 318 315 314 315 322 327 318 314 319 321 322 323 320 319 318 317 319 324 323 318 317 322 324 314 304 302 302 301 301 301 300 300 299 299 298 297 298 299 300 301 301 302 302 302 302 301 301 300 300 300 299 300 299 300 300 299 299 299 298 299 298 299 299 298 299 299 299 299 299 299 298 298 298 297 297 297 297 297 298 298 298 298
319 323 322 317 314 314 315 314 318 324 321 316 317 318 320 324 323 319 319 320 320 323 322 319 321 322 316 307 303 302 301 300 300 300 299 299 298 298 298 298 298 299 299 300 301 301 301 300 300 299 298 298 297 297 297 297 297 297 297 297 297 296 296 296 296 297 297 297 297 297 297 297 297 297 297 297 297 296 296 296 296 296 296 297 297 297
316 322 320 313 312 312 313 315 313 316 322 319 316 321 324 321 319 319 322 322 318 319 319 317 320 317 310 307 305 302 302 301 300 299 299 298 298 297 297 298 298 298 299 300 300 300 299 299 298 297 296 296 296 296 296 295 295 294 294 294 294 293 293 293 293 293 294 294 294 294 294 294 294 294 294 294 295 295 294 294 294 294 294 295 295 295
318 319 319 316 317 312 308 311 312 310 317 320 318 321 321 316 317 319 320 320 318 318 318 315 317 316 313 313 306 303 304 302 300 300 298 298 298 297 297 297 297 298 299 299 299 298 297 297 296 296 296 296 295 295 294 294 293 293 292 292 292 291 291 291 291 291 291 291 291 291 292 292 292 292 292 292 292 292 292 292 293 292 293 293 293 293
318 318 319 317 318 314 309 312 316 312 311 314 315 315 315 316 319 319 318 319 319 317 318 319 318 317 316 314 308 306 306 303 301 300 299 298 297 297 297 297 298 299 299 298 298 297 296 296 296 296 296 295 295 294 293 293 292 292 291 291 291 290 290 290 290 290 290 290 290 290 290 290 290 290 290 290 290 290 290 291 291 291 291 291 291 291
319 320 320 316 315 316 315 316 320 318 311 310 313 314 316 317 318 319 317 319 320 317 318 319 318 320 319 313 312 310 306 302 301 301 299 298 297 297 298 299 299 299 298 297 296 296 296 296 296 296 295 295 294 293 292 292 292 291 291 290 290 289 289 289 289 289 289 289 289 289 289 288 289 289 289 289 289 289 289 289 289 289 290 290 290 290
319 319 319 318 315 316 318 318 320 322 317 315 316 315 315 315 316 317 315 317 318 317 318 317 317 323 319 310 310 310 305 302 301 301 300 298 298 299 300 300 300 298 297 297 296 296 296 296 296 295 295 294 293 293 292 291 291 291 290 290 289 289 289 289 289 288 288 288 288 288 288 288 288 288 288 288 288 288 288 288 288 288 288 288 288 289
317 318 321 323 319 317 320 320 318 318 318 320 320 318 317 317 316 316 315 316 316 316 318 316 316 320 315 308 308 307 304 302 301 300 300 299 299 300 300 300 299 298 297 297 296 296 295 294 294 293 293 293 292 292 291 291 290 290 289 289 289 289 289 289 289 288 288 288 288 288 287 287 287 287 287 287 287 287 287 287 287 287 287 287 287 287
314 317 321 322 319 317 318 317 312 312 315 319 319 318 319 319 317 316 315 316 315 315 316 314 314 317 312 307 307 305 303 302 301 301 301 300 301 301 299 299 298 298 297 296 295 294 293 293 293 292 292 291 291 290 290 289 289 289 289 289 289 289 288 288 288 288 288 288 287 287 287 287 287 287 287 287 287 287 287 287 287 287 287 287 287 287
314 318 318 318 318 317 316 314 312 313 316 316 315 315 316 316 315 315 314 314 314 314 314 313 314 314 310 305 304 303 302 302 302 303 303 301 301 301 300 299 298 297 296 294 294 293 293 292 292 291 291 290 289 289 289 289 288 288 288 288 288 288 288 288 288 288 287 287 287 287 287 287 287 287 287 287 287 287 287 287 287 287 287 287 287 287
315 316 315 316 317 316 315 313 313 316 317 315 316 316 314 312 312 311 311 312 312 311 312 312 312 313 311 306 303 303 303 301 301 303 303 303 302 302 300 299 297 296 294 293 293 293 292 291 291 291 290 290 289 289 289 288 288 288 288 288 288 288 288 288 288 288 288 288 288 288 288 288 288 288 288 288 288 288 288 288 288 288 288 288 288 288
315 314 313 314 315 314 314 312 312 314 314 313 313 314 312 311 310 309 310 311 310 310 310 311 311 312 311 309 306 306 306 305 303 302 303 303 303 302 300 298 297 295 294 294 294 293 291 291 290 290 289 289 289 289 289 288 288 288 288 288 288 288 288 288 288 288 288 288 288 288 288 288 288 288 288 288 288 288 288 288 288 288 288 288 288 288
314 313 312 313 313 312 311 311 311 311 310 309 310 311 310 309 308 308 309 310 310 309 308 308 309 309 309 308 307 307 309 309 306 302 302 303 302 302 300 297 296 295 295 295 294 292 291 290 290 289 289 289 289 289 289 289 289 289 289 289 289 289 289 289 289 289 289 289 288 288 288 288 288 288 288 288 288 288 288 288 288 288 288 288 288 287
312 312 311 311 312 311 310 310 309 308 308 309 309 309 308 307 306 306 308 308 309 308 307 307 307 307 307 306 305 305 308 308 305 302 302 303 302 301 299 296 296 296 296 295 293 292 292 291 291 290 290 289 289 289 289 289 289 289 289 289 289 289 289 289 289 289 288 288 288 288 288 288 288 288 288 288 288 288 288 288 287 287 287 287 287 287
312 311 310 309 310 310 309 308 306 305 306 307 307 307 306 305 304 304 305 306 307 307 306 306 306 306 305 304 304 304 303 303 302 301 301 302 300 299 297 296 296 295 295 294 293 293 293 292 292 291 291 290 290 290 289 289 289 289 289 289 289 289 289 288 288 288 288 288 288 287 287 287 287 287 287 287 287 287 287 287 287 286 286 286 286 286
309 310 308 308 308 307 306 305 305 304 305 305 305 305 304 304 303 303 303 303 304 304 304 304 304 304 303 302 303 302 301 300 300 300 300 300 299 298 297 296 296 295 294 294 294 294 293 293 292 292 291 291 291 290 290 289 289 289 289 289 289 289 288 288 288 288 288 287 287 287 287 287 287 287 287 286 286 286 286 285 285 285 285 285 285 285
306 308 306 306 306 306 305 303 303 304 304 303 303 302 302 302 302 302 302 302 302 302 302 302 302 302 302 301 300 300 300 299 298 297 298 298 297 297 296 295 294 294 294 294 293 293 293 293 292 291 291 291 291 290 290 289 289 289 289 289 289 289 288 288 288 288 287 287 287 286 286 286 285 285 285 285 284 284 284 284 284 284 284 284 284 284
306 306 305 304 305 305 303 301 302 303 303 302 301 300 300 300 300 301 301 301 302 301 301 301 301 301 301 301 300 298 297 296 296 295 295 296 296 295 294 293 293 292 292 292 292 292 292 292 292 291 291 291 290 290 289 289 289 289 289 289 289 289 288 288 287 287 287 287 286 286 285 284 284 284 284 283 283 283 282 282 282 282 282 282 282 283
306 305 305 305 303 302 301 301 302 302 301 301 300 300 300 300 300 300 301 301 301 300 301 301 300 301 301 301 301 298 294 293 293 293 293 293 293 293 293 292 291 291 291 291 291 291 291 291 291 291 291 290 290 289 289 289 289 289 289 289 288 288 288 287 287 287 286 286 285 284 284 283 283 283 283 282 282 281 281 281 281 281 281 281 281 282
304 304 305 305 302 300 300 301 301 300 299 299 300 301 301 300 301 301 300 301 300 301 301 300 300 303 302 301 301 299 295 293 293 292 292 292 292 292 292 292 291 291 291 291 291 290 290 290 290 290 289 289 289 289 289 289 288 288 288 288 288 287 287 287 287 286 285 285 284 283 283 283 282 282 282 281 281 281 281 281 280 280 280 280 280 280
304 303 303 303 301 299 301 301 300 299 298 299 301 302 301 300 301 301 300 300 299 300 300 299 299 301 300 298 299 298 295 294 292 291 291 291 291 292 291 291 291 291 291 291 290 290 290 289 289 289 289 289 289 289 289 288 288 288 288 288 287 287 287 286 285 284 284 283 283 282 282 282 281 281 281 281 281 280 280 280 280 279 279 279 278 278
302 301 301 302 301 300 300 300 299 298 297 298 298 298 297 297 299 298 298 298 298 298 298 297 298 297 295 295 295 294 293 292 291 291 291 291 292 292 291 291 291 291 291 291 290 290 289 289 289 289 289 289 288 288 288 288 288 288 287 287 287 286 285 284 284 283 283 283 282 282 281 281 281 281 280 280 280 280 279 279 279 278 278 277 278 277
301 301 301 300 300 300 299 299 299 298 297 297 297 296 296 296 297 298 298 298 298 296 295 298 300 295 291 292 292 291 291 291 291 292 292 292 292 292 292 292 291 291 291 290 290 290 289 289 289 289 289 288 288 288 288 288 287 287 287 286 286 285 284 283 283 283 282 282 282 281 281 281 280 280 280 280 279 279 279 278 278 278 277 276 277 276
299 300 300 299 299 299 298 298 298 297 296 297 296 295 295 294 295 297 298 299 297 294 293 297 299 293 289 290 291 290 291 292 293 294 292 291 291 291 291 291 291 291 290 290 289 289 289 289 289 289 289 288 288 288 288 287 287 287 286 285 284 283 283 283 283 282 282 282 281 281 281 280 280 279 279 279 279 279 278 278 277 277 276 275 275 274
298 298 299 299 298 298 297 297 297 296 296 298 297 294 293 293 294 295 297 298 296 293 293 295 293 289 288 290 290 290 291 293 294 294 291 290 291 291 290 290 290 290 290 289 289 289 289 289 289 289 289 288 288 288 287 287 287 286 285 284 283 283 283 283 282 282 282 281 281 280 280 279 279 279 279 279 279 278 278 277 277 276 275 273 273 272
296 297 298 298 298 297 297 296 296 295 297 298 296 293 293 293 294 295 295 296 294 292 294 294 292 290 290 290 290 291 292 293 294 293 291 290 291 290 290 290 290 290 289 289 289 289 289 289 289 288 288 288 288 288 287 287 286 285 284 283 283 283 283 282 282 281 281 281 280 280 279 279 279 279 279 278 278 277 277 276 276 274 273 272 272 272
295 295 296 297 297 297 297 296 296 296 297 296 294 294 293 293 294 294 294 296 294 293 293 294 294 293 291 290 290 291 293 293 292 291 291 290 290 290 290 290 289 289 289 289 289 289 289 289 288 288 288 288 288 287 287 286 285 284 283 283 283 282 282 282 281 281 281 280 280 279 279 279 279 279 278 277 277 277 276 275 274 273 272 271 271 271
294 294 295 295 296 295 296 296 296 295 295 294 293 293 293 293 295 295 295 295 294 293 293 294 294 293 292 291 291 292 292 292 291 291 290 290 290 290 290 289 289 289 289 289 289 289 289 288 288 288 288 287 287 287 286 285 284 283 283 282 282 282 282 281 281 281 281 280 279 279 279 279 278 278 277 277 276 275 274 273 272 271 271 271 271 271
294 294 294 295 295 295 294 294 294 294 295 293 293 294 294 294 296 296 294 294 294 293 293 293 293 293 292 292 292 292 292 291 291 290 290 290 290 290 289 289 289 289 289 289 289 289 288 288 288 288 287 287 287 286 285 284 283 283 282 282 282 281 281 281 281 281 280 280 279 279 279 279 278 277 277 276 275 273 273 272 272 271 271 271 270 270
295 296 297 296 295 295 295 294 295 296 295 293 294 295 295 295 296 294 293 293 293 293 293 293 293 293 293 292 292 292 291 291 291 290 290 290 290 289 289 289 289 289 289 288 288 288 288 288 288 287 287 287 287 286 284 283 282 282 282 281 281 281 281 281 281 280 280 279 279 279 279 278 278 277 276 275 273 273 272 272 272 271 271 271 270 270
295 296 297 296 294 294 295 297 297 296 293 293 294 295 294 294 294 294 294 294 293 293 293 293 293 293 293 292 292 291 291 291 290 290 290 290 289 289 289 289 289 288 288 288 288 288 288 288 287 287 287 287 286 284 283 282 282 282 281 281 281 281 281 281 280 280 279 279 279 278 278 278 278 277 275 274 273 272 272 272 271 271 271 271 270 270
292 292 293 293 294 293 293 294 294 292 292 293 293 293 293 293 293 293 293 293 293 293 293 292 292 293 292 292 292 291 291 291 290 290 290 289 289 289 289 289 288 288 288 288 288 288 287 287 287 287 287 286 285 283 282 282 282 281 281 280 280 280 280 280 280 279 279 279 278 278 278 278 278 276 275 273 273 272 272 272 271 271 271 271 271 270
292 291 291 292 293 293 292 293 292 292 292 293 293 293 293 293 293 293 293 293 293 292 292 292 292 292 292 292 292 291 291 291 290 290 290 289 289 289 289 288 288 288 288 288 288 287 287 287 286 286 286 285 283 282 282 282 281 281 280 280 280 280 280 279 279 279 278 278 278 278 278 278 277 276 274 274 273 272 272 272 271 271 271 271 270 269
292 292 292 291 292 292 292 292 292 292 292 292 292 292 292 292 293 293 292 292 292 292 292 292 292 292 292 292 292 291 291 291 290 290 290 289 289 289 288 288 288 288 287 287 287 287 286 286 286 286 285 284 282 282 282 281 281 280 280 279 279 279 279 279 278 278 278 278 278 278 278 277 276 275 274 273 273 272 273 272 272 272 272 272 270 268
292 292 292 292 292 292 291 291 291 291 292 292 292 292 292 292 292 292 292 292 292 292 292 292 291 292 292 291 291 291 291 291 290 290 290 289 289 289 288 288 288 287 287 287 286 286 286 286 286 285 284 283 282 282 281 281 280 279 279 279 279 279 279 278 278 278 278 278 278 278 277 277 276 275 274 273 273 272 273 273 272 271 271 272 271 268
292 292 292 292 292 292 292 291 291 291 291 291 292 292 292 292 292 292 292 292 292 292 292 292 292 291 291 291 291 291 291 291 290 290 290 289 289 288 288 288 287 287 287 286 286 286 285 285 285 284 283 282 281 281 281 280 279 279 279 279 279 278 278 278 278 278 277 278 278 278 277 276 276 275 274 273 272 272 273 273 273 272 271 271 271 269
292 292 292 292 292 292 292 292 292 291 291 292 292 292 292 292 292 292 292 292 292 292 292 292 292 291 291 291 291 291 291 290 290 290 289 289 289 288 287 287 287 287 286 286 285 285 285 285 284 283 282 281 281 281 281 280 279 278 278 278 278 278 277 277 277 277 277 277 277 277 277 276 275 274 273 273 272 272 272 273 274 274 273 271 271 270
Wind_Speed
9 5 2 4 6 9 10 10 11 10 8 6 6 5 5 5 5 6 6 6 2 1 6 7 4 5 7 7 13 23 20 14 11 5 17 20 20 23 24 24 24 25 22 19 18 17 15 14 13 12 12 10 8 7 6 5 5 5 5 5 5 6 5 6 6 5 4 4 5 6 9 10 11 13 14 15 15 16 18 19 20 20 21 22 23 24
7 4 5 10 11 12 11 9 8 7 7 6 6 5 5 4 5 6 6 7 3 0 5 4 4 6 7 8 17 17 9 7 4 15 18 18 21 22 24 25 25 24 22 22 22 22 22 21 21 20 20 19 16 15 12 10 10 9 8 8 7 7 5 5 5 5 5 4 3 2 3 4 6 8 10 11 13 15 16 18 19 19 20 21 21 22
4 3 9 14 13 10 8 6 6 7 6 6 5 3 4 4 3 5 6 5 3 0 4 6 5 7 8 11 15 8 10 9 13 19 17 19 23 22 23 24 24 25 25 25 26 26 26 26 27 27 28 28 26 26 25 24 23 22 21 19 16 12 10 9 8 6 5 4 2 2 2 1 1 2 3 4 6 8 10 13 14 16 17 18 19 20
4 6 13 17 11 7 8 8 7 7 5 4 4 3 5 4 2 4 6 6 4 2 3 5 5 5 7 9 7 10 15 17 20 23 22 23 24 24 24 24 25 26 27 27 27 27 28 28 30 31 32 32 31 32 33 34 33 33 32 30 27 24 20 18 16 13 10 6 2 0 1 2 3 2 3 3 4 4 5 6 8 10 12 13 15 16
6 9 13 12 7 6 8 9 7 5 4 3 3 4 4 4 3 5 4 5 5 4 1 2 5 4 5 8 1 7 11 16 19 21 23 22 23 25 24 25 26 26 27 28 28 29 30 30 31 33 33 33 34 35 35 35 35 35 35 34 33 31 29 27 25 22 18 14 10 6 2 1 2 2 2 1 1 1 1 2 3 4 5 7 8 10
7 10 11 7 5 7 7 7 6 3 2 4 3 5 6 6 5 4 3 4 5 5 3 4 4 5 5 7 5 4 6 9 12 15 17 18 20 23 24 24 24 25 27 27 28 29 30 31 32 33 33 33 34 34 35 34 34 33 33 32 31 31 30 29 28 26 24 21 18 15 11 7 5 4 5 6 6 5 5 4 3 2 2 3 4 5
4 6 5 4 5 5 5 6 5 6 3 3 4 4 5 5 3 1 3 3 2 2 3 3 1 6 4 6 7 5 7 5 8 10 11 15 19 21 23 22 22 24 26 28 28 28 30 31 32 33 33 33 33 32 32 32 32 31 30 30 29 29 28 28 27 25 24 23 21 19 16 13 10 8 8 8 9 8 8 8 7 6 4 3 2 2
3 1 2 4 3 4 5 5 5 6 6 3 5 4 5 5 3 2 3 1 3 2 5 1 4 5 4 6 7 6 9 5 6 6 8 13 18 20 21 20 22 23 24 27 29 28 29 30 31 32 31 31 30 29 28 29 29 29 28 27 26 26 26 25 25 24 23 23 22 20 18 16 14 12 10 8 9 9 10 10 9 9 8 6 5 4
1 3 3 5 4 3 5 5 5 8 5 5 5 5 5 4 4 3 4 1 2 2 5 5 4 3 5 5 2 7 7 4 5 5 6 11 15 19 20 19 21 22 22 25 27 27 28 28 29 29 29 28 26 25 26 26 26 26 25 24 23 24 24 23 23 22 22 22 21 20 19 18 17 15 12 10 9 10 11 12 11 10 10 9 8 7
0 3 4 6 5 4 6 4 4 6 4 4 4 3 3 2 2 2 4 2 1 2 4 7 4 3 5 5 1 5 4 5 5 4 6 11 15 17 17 18 19 20 22 23 25 26 26 26 27 27 26 24 23 23 23 23 23 23 23 22 22 23 23 22 21 21 21 20 20 19 19 18 18 17 15 13 12 11 12 13 13 11 10 10 9 8
1 2 1 3 4 6 5 2 2 3 4 4 4 3 5 5 3 3 2 3 3 2 6 8 7 6 3 5 3 3 3 8 9 6 7 11 16 17 16 16 17 19 21 22 24 25 24 24 24 23 23 22 21 20 19 20 20 21 21 21 21 21 21 20 20 19 19 19 19 19 19 18 17 17 15 15 14 14 14 13 13 13 11 10 10 9
2 1 1 3 5 5 6 3 2 3 2 5 5 4 4 4 4 5 4 4 2 4 7 6 6 7 4 5 3 3 4 6 11 10 10 11 15 17 16 15 17 19 21 22 23 23 22 22 21 20 19 18 17 16 16 17 17 18 19 18 18 18 19 19 18 18 18 18 18 18 18 18 18 17 16 16 15 15 15 15 14 14 12 11 10 9
2 4 4 1 2 5 6 2 2 5 5 5 4 5 4 3 3 2 2 0 2 6 6 3 3 4 6 5 1 5 7 4 9 11 14 15 17 18 16 15 16 18 20 21 21 21 20 19 18 17 15 15 14 14 14 14 14 15 16 15 15 16 17 17 16 17 17 17 17 17 17 17 17 17 16 16 15 15 15 15 14 14 14 14 13 12
2 5 3 0 2 5 8 4 2 2 1 4 4 4 3 2 1 3 3 1 3 5 5 3 1 1 5 3 4 5 6 9 18 21 21 20 20 18 16 15 16 17 19 19 18 18 17 17 15 14 13 12 12 12 12 12 13 14 14 14 13 14 14 14 14 15 15 16 16 15 15 15 15 15 16 16 15 15 14 14 14 14 14 14 14 14
2 5 3 4 2 7 9 6 6 5 3 5 5 5 5 4 3 3 3 3 3 4 5 4 1 2 3 1 3 5 9 16 23 24 23 22 20 18 17 16 17 18 17 17 16 16 15 14 13 11 10 10 10 10 10 10 11 12 13 13 12 12 12 12 12 12 12 13 13 13 13 13 13 14 14 15 15 15 15 15 15 14 14 14 13 13
3 5 5 2 2 8 7 5 6 6 1 3 3 4 2 4 5 2 3 4 3 3 4 3 2 2 3 2 3 7 11 16 19 20 21 20 18 17 17 16 16 17 16 15 14 13 12 11 10 9 8 8 9 9 9 10 11 12 12 11 11 11 10 9 9 9 10 10 10 10 11 11 11 12 12 13 14 15 16 17 16 16 16 14 14 13
2 5 4 2 1 4 4 2 3 4 1 0 3 2 4 4 5 1 4 2 1 3 4 3 3 2 2 2 2 5 8 9 11 13 16 16 15 16 16 16 16 15 14 13 11 11 10 9 8 8 8 8 8 8 9 10 11 12 11 11 10 10 9 9 9 8 8 8 8 8 9 9 10 11 11 12 13 14 15 16 16 17 17 17 16 16
3 3 4 2 1 3 2 3 3 3 3 2 2 4 3 1 3 2 1 2 3 5 4 3 6 4 2 2 1 4 5 5 5 7 11 12 14 15 16 16 16 14 13 11 10 9 9 8 7 6 6 6 7 8 9 10 10 11 11 11 10 10 10 10 10 10 9 9 8 7 7 7 8 9 10 11 12 13 14 15 15 16 17 18 18 19
2 1 6 1 2 2 2 4 3 5 4 3 3 2 1 1 1 1 1 2 4 5 3 5 7 5 4 4 4 5 6 7 6 6 7 9 13 16 16 16 15 14 12 10 10 9 8 7 5 4 4 5 6 7 8 8 9 9 10 10 11 12 12 12 12 12 12 12 11 10 9 8 8 8 8 10 11 12 14 15 16 17 17 18 19 19
2 2 4 3 1 0 3 3 2 2 3 3 2 2 1 3 3 2 2 3 3 4 4 5 5 4 4 4 7 9 10 9 8 6 6 10 15 17 17 16 15 13 12 11 10 9 7 5 2 2 3 3 4 5 7 8 8 10 11 12 13 14 15 15 16 16 16 16 15 15 15 14 14 14 14 14 15 15 14 15 15 16 17 18 19 20
2 2 3 3 3 1 1 1 5 4 1 2 2 2 1 1 1 1 2 2 3 3 4 5 5 4 3 1 5 9 9 9 10 8 7 11 16 17 17 16 14 13 12 11 9 7 5 3 2 2 2 2 3 4 6 7 8 10 11 12 13 14 14 15 16 17 17 17 18 18 18 19 20 20 21 21 21 21 20 20 19 19 18 18 19 20
1 2 2 2 2 1 4 5 4 5 5 4 2 3 3 2 0 2 4 2 3 3 3 3 5 4 3 2 2 6 7 8 12 12 10 14 19 19 18 16 14 13 11 10 8 6 4 3 2 2 2 2 3 4 5 6 8 8 10 11 11 13 14 15 15 16 17 18 19 20 20 22 22 23 24 24 25 26 26 27 27 26 26 24 23 23
2 3 2 3 4 4 6 4 1 2 5 6 3 2 4 3 4 3 4 3 2 2 1 1 4 2 2 2 2 7 9 13 17 17 16 19 22 20 18 16 14 12 10 9 7 4 3 2 2 2 3 3 4 5 6 7 8 8 9 10 11 12 13 14 15 16 17 18 19 21 22 23 24 25 26 27 28 29 30 31 31 31 32 31 31 30
3 3 1 3 4 3 4 4 5 4 2 4 0 0 2 3 3 4 4 2 1 3 1 1 4 2 1 2 4 10 12 15 18 18 17 19 20 18 17 16 15 12 9 7 5 3 2 2 1 1 2 3 4 5 6 7 9 9 10 11 12 13 13 14 15 16 17 18 19 20 21 23 24 25 27 28 29 30 31 32 33 34 35 35 36 35
2 2 2 1 2 4 5 4 4 5 3 2 2 1 2 3 3 2 1 2 1 3 3 2 4 3 1 1 4 8 9 10 15 18 16 15 16 17 17 16 13 10 8 7 5 4 4 3 2 1 0 2 3 4 6 7 9 10 11 12 13 14 15 15 16 17 18 19 20 21 22 23 25 27 28 29 30 31 32 33 34 35 36 37 37 38
3 2 3 3 3 5 4 2 2 1 2 0 2 2 1 3 3 1 0 1 2 2 2 3 4 2 2 2 3 5 4 6 11 15 16 15 15 15 16 15 12 11 10 8 7 7 6 5 4 3 1 2 2 4 5 7 8 10 11 12 13 14 15 16 17 18 20 21 21 22 24 25 28 29 31 32 33 34 34 35 36 36 37 37 38 38
2 1 3 5 6 7 5 5 4 3 1 3 4 5 6 5 3 3 2 3 3 2 3 7 7 5 8 8 4 5 5 6 8 12 15 16 15 14 15 15 14 12 10 9 9 9 7 5 4 3 2 2 3 4 6 7 9 11 13 13 14 15 17 18 20 21 22 23 24 25 28 30 32 33 34 35 36 37 38 38 39 39 39 39 39 39
4 1 3 5 6 6 5 5 2 3 2 5 6 8 9 6 3 4 4 5 4 2 6 10 8 6 10 11 6 4 6 6 7 11 15 16 16 16 15 16 14 11 9 10 10 9 8 6 5 4 4 4 6 8 9 11 13 15 17 17 17 17 19 21 23 25 27 29 30 32 34 35 36 36 37 39 39 40 41 41 41 41 41 41 41 41
4 3 4 3 4 7 4 2 2 1 3 5 6 8 10 10 7 5 6 8 6 6 10 11 10 9 10 10 7 5 8 9 9 13 16 15 14 16 16 15 12 10 9 9 9 9 9 8 8 7 7 9 11 12 13 13 14 16 17 17 17 18 19 21 24 26 29 32 34 35 36 38 39 39 40 41 41 41 41 41 42 42 42 43 43 44
4 2 2 3 3 6 5 3 2 1 3 5 7 10 11 11 9 7 9 10 8 9 12 11 11 13 11 7 6 10 13 10 6 7 7 8 13 16 14 12 10 8 8 8 8 9 10 11 11 10 10 12 14 14 15 15 15 16 16 16 16 16 17 19 22 25 29 32 33 35 37 38 39 39 40 41 41 42 42 43 44 45 45 46 46 47
3 1 1 3 1 5 3 2 0 2 4 6 10 13 12 10 10 10 11 9 7 10 12 10 10 12 9 7 7 10 9 4 5 7 7 10 12 12 11 10 8 7 7 7 7 7 8 9 10 11 11 13 14 15 15 15 16 16 16 16 16 16 17 19 22 25 28 31 33 35 36 38 38 40 41 42 43 44 45 46 47 48 49 49 49 50
2 1 1 4 2 6 2 4 3 5 4 7 14 17 15 11 9 9 8 8 9 11 10 8 9 8 6 7 9 5 3 6 7 8 10 11 11 10 9 9 8 7 7 7 6 5 4 5 6 7 8 10 12 14 15 16 16 16 16 15 15 16 17 20 23 26 29 31 33 34 36 37 39 41 43 44 45 45 46 47 48 49 49 50 51 51
3 3 0 3 2 6 3 4 4 3 2 7 11 13 13 12 9 8 8 10 11 9 7 7 8 6 5 7 7 3 6 7 8 10 11 10 9 9 9 9 8 8 8 7 7 6 5 6 7 8 9 10 12 13 15 15 14 13 13 14 16 18 21 24 27 29 31 32 33 35 37 39 41 43 44 45 45 45 46 46 47 48 48 49 50 50
4 5 3 3 3 4 3 4 4 2 5 7 5 6 9 9 9 10 11 11 10 7 6 6 5 4 5 6 6 6 7 9 10 9 9 8 8 9 10 10 9 9 9 9 8 7 7 8 9 11 12 13 13 14 14 14 14 15 17 20 23 25 27 29 30 31 31 33 35 37 39 41 42 43 44 44 44 45 46 46 47 47 47 48 48 49
5 5 4 3 3 2 2 5 2 7 8 4 1 4 6 8 9 10 11 10 9 8 8 6 4 5 8 9 11 12 12 11 8 6 5 6 8 10 12 12 11 11 11 10 9 9 10 11 11 12 13 14 14 14 15 16 19 22 25 27 27 28 29 29 30 31 33 35 38 39 40 41 42 43 44 44 44 45 45 46 47 48 48 48 49 49
6 5 3 3 2 1 2 4 6 5 4 7 7 4 2 3 5 5 7 8 8 7 7 6 6 7 10 12 11 11 10 7 6 6 5 5 8 11 12 13 11 12 12 11 11 11 11 12 13 13 14 14 15 16 18 22 24 25 26 26 27 27 28 29 31 33 36 38 40 41 41 42 42 43 43 44 45 46 47 47 48 49 48 49 51 51
7 5 3 2 2 2 3 6 6 4 8 12 11 4 2 3 4 4 2 6 7 4 5 6 4 5 8 11 10 7 4 1 5 6 4 3 6 9 10 9 9 11 11 11 12 13 12 13 13 14 15 16 17 19 23 26 26 26 26 27 27 27 28 31 34 37 39 40 40 41 41 41 42 43 44 45 46 47 48 48 49 49 49 50 52 52
6 5 5 3 3 3 3 4 4 4 7 10 7 3 2 4 6 8 3 4 6 4 6 7 6 6 9 10 8 6 3 1 4 5 3 4 4 5 5 6 8 11 12 13 13 13 13 14 15 16 18 19 20 24 26 27 27 27 28 27 27 28 31 34 37 39 39 40 40 40 40 40 41 43 44 45 46 48 49 49 50 51 50 49 50 51
5 4 5 4 4 4 4 5 5 5 7 7 5 4 5 8 8 7 4 4 6 5 7 8 7 11 13 13 11 8 4 1 5 8 6 5 5 6 6 7 9 11 13 14 14 15 15 16 18 19 20 21 24 27 28 28 28 28 27 27 28 31 34 37 38 39 39 40 39 39 39 40 41 42 44 46 47 48 49 51 51 51 49 48 47 48
4 3 4 5 6 8 7 6 5 4 6 5 6 7 8 6 5 6 3 6 6 5 8 10 11 16 19 16 12 8 5 6 8 10 9 7 10 11 10 10 12 13 15 16 17 18 18 19 20 21 21 23 26 28 28 29 29 28 27 28 31 34 36 38 38 39 39 38 38 38 39 40 41 43 44 46 47 48 49 50 50 49 48 47 46 45
2 1 3 6 8 10 10 7 4 4 4 5 7 11 11 5 3 0 6 8 7 7 10 12 14 18 21 19 14 11 12 14 13 12 11 10 13 14 13 14 15 16 17 18 20 20 20 21 21 22 23 26 27 27 28 29 28 27 28 30 33 36 37 38 38 38 38 38 37 38 39 40 42 43 43 44 45 47 47 46 45 45 44 44 44 43
2 1 2 5 6 7 7 5 4 5 5 9 10 11 11 6 1 6 8 7 9 11 12 14 17 19 22 22 20 18 19 17 14 13 14 15 17 16 15 15 16 17 19 20 21 21 21 21 22 23 26 27 27 27 28 28 27 27 29 32 35 36 37 38 38 38 37 37 37 38 40 41 41 41 42 42 43 43 43 41 39 39 39 40 41 41
5 3 3 5 5 4 3 5 4 5 5 13 11 4 6 6 6 9 9 10 13 14 14 16 20 21 22 24 23 20 19 16 15 16 17 18 17 16 16 17 18 20 21 21 22 22 22 22 24 26 27 28 28 29 28 27 27 28 31 34 35 36 37 37 37 37 36 36 37 39 40 41 40 40 40 40 39 38 38 37 37 37 37 38 40 41
3 5 4 4 3 5 4 6 6 5 8 17 16 5 8 16 17 15 13 13 15 16 16 18 21 22 25 26 24 21 19 18 18 18 18 18 17 17 17 19 20 21 22 22 23 23 24 25 27 27 27 28 29 29 27 26 28 31 33 34 34 35 37 36 36 36 35 36 37 38 39 39 39 39 38 36 35 35 36 36 37 37 38 38 39 41
6 6 5 5 3 6 5 5 5 6 11 21 22 14 14 20 24 22 19 19 18 19 19 20 22 23 25 27 25 22 20 20 20 19 19 19 18 18 19 21 22 23 24 24 25 26 27 28 27 27 27 28 28 28 26 27 30 33 33 33 34 35 36 36 35 35 35 36 37 38 38 39 38 38 36 33 33 34 36 37 38 39 39 39 39 41
9 8 3 1 0 2 3 5 5 5 8 16 22 22 20 21 23 23 23 24 22 22 22 23 24 24 25 26 26 24 22 22 21 20 19 19 19 20 20 22 23 24 25 26 27 27 28 28 27 26 27 28 27 26 26 28 31 33 32 32 33 34 35 35 35 35 35 36 37 37 37 38 38 37 35 33 33 34 35 37 39 40 40 40 40 40
10 13 7 2 1 2 2 5 7 8 13 18 22 25 25 25 25 25 26 26 25 26 26 26 26 27 26 27 27 26 24 23 22 22 20 19 21 22 22 23 24 25 26 27 28 28 27 26 26 26 28 27 26 25 26 29 31 31 31 32 32 33 34 33 34 35 35 36 36 36 37 38 38 37 35 34 34 34 35 36 38 39 40 39 39 40
7 9 7 5 6 7 5 6 10 15 22 26 27 25 24 26 28 27 27 27 28 29 30 29 28 27 27 28 28 28 27 25 25 24 22 20 22 23 24 25 26 26 27 28 28 27 26 25 26 27 28 26 24 25 28 30 30 29 29 31 31 32 32 32 33 34 34 34 35 35 36 36 36 36 36 35 35 35 35 36 38 39 38 37 38 39
9 6 4 3 4 5 6 8 13 16 20 26 30 30 29 30 30 28 29 30 30 31 32 32 30 27 27 28 28 28 28 27 26 24 22 22 23 24 25 26 27 27 28 28 27 26 25 25 27 28 27 25 24 26 29 30 29 28 28 30 30 31 31 32 32 33 33 34 34 34 35 35 35 34 35 36 36 36 36 36 38 40 40 37 35 36
10 7 5 3 3 5 7 9 12 9 9 18 28 31 31 31 31 30 31 31 31 31 30 30 30 29 27 27 27 28 29 28 27 25 24 24 25 25 26 27 27 28 28 27 26 25 25 25 27 27 25 24 25 28 30 30 27 26 27 28 29 29 30 31 32 32 32 33 33 33 34 35 34 33 34 35 37 38 38 36 35 37 39 38 36 34
15 11 8 5 6 10 15 19 20 15 13 20 28 31 30 30 30 29 29 29 29 28 27 27 28 28 28 28 28 28 29 29 28 26 25 25 26 26 26 27 27 27 27 26 25 25 25 26 27 25 24 24 26 29 30 28 25 25 27 27 27 28 28 29 31 32 31 32 32 32 33 34 33 33 33 34 36 39 41 40 36 34 34 36 36 35
Wind_Direction
160 117 141 195 216 222 225 215 213 225 227 237 252 258 254 250 267 265 265 275 286 310 259 251 266 278 276 276 273 279 292 311 315 43 93 94 86 84 83 78 75 74 70 70 72 69 67 66 65 66 66 71 85 102 120 134 137 141 148 158 149 139 139 136 133 137 150 167 191 215 229 236 240 243 246 248 249 251 252 253 253 253 254 254 255 256
152 143 208 215 220 226 234 226 220 237 242 242 237 242 255 246 256 260 266 278 291 272 259 291 354 302 286 281 282 292 330 353 69 99 95 90 85 82 81 79 78 79 79 80 78 76 76 75 75 76 76 76 76 79 80 80 80 78 80 87 94 100 93 89 95 96 99 101 105 137 190 210 223 229 233 237 240 244 247 250 252 254 255 255 256 258
160 211 232 227 225 235 258 254 240 251 252 255 247 237 263 266 287 290 292 311 356 58 270 319 333 292 285 278 293 340 72 72 85 98 96 94 89 81 80 80 82 82 80 79 77 77 77 77 78 79 78 76 75 76 75 74 74 71 69 69 71 72 64 57 53 50 58 71 81 85 92 121 213 229 239 242 241 243 245 248 250 253 255 256 257 258
179 233 237 235 230 235 263 268 264 271 274 269 262 261 272 291 345 289 299 334 344 276 252 301 300 290 285 278 332 57 95 90 86 92 91 93 91 87 86 83 83 82 78 79 78 78 79 81 82 82 81 80 79 79 77 75 72 71 69 68 68 68 64 61 56 50 47 46 45 62 198 220 232 242 257 261 261 260 256 251 249 249 250 251 252 252
204 223 226 231 224 204 237 264 268 274 297 286 221 210 250 278 247 233 280 332 333 318 328 8 327 299 257 254 323 80 96 90 90 89 85 89 91 91 90 86 85 83 81 81 81 81 81 81 82 83 83 82 81 79 77 75 73 71 70 68 67 66 65 63 61 59 57 56 53 51 53 234 238 246 257 255 281 287 285 267 247 246 242 239 239 239
234 237 227 234 243 205 211 251 240 202 295 306 240 211 221 234 238 240 327 8 20 338 325 48 3 293 255 251 235 144 102 83 88 86 85 89 89 91 88 85 87 87 87 84 83 85 85 84 84 84 83 80 79 78 77 77 75 73 71 69 67 65 63 61 60 60 59 60 59 58 59 58 52 34 29 37 35 21 9 6 355 322 278 250 238 226
232 240 218 209 232 202 193 243 226 159 132 289 251 200 180 162 145 102 47 36 60 262 291 69 73 275 271 258 246 156 115 100 91 84 87 89 87 90 88 87 89 88 91 92 88 86 87 88 87 84 82 79 77 76 76 76 74 72 69 67 64 62 61 59 58 57 56 57 58 58 59 59 57 47 36 33 32 30 24 18 15 11 5 345 305 273
187 142 87 128 156 154 180 241 231 151 134 233 236 147 112 104 118 159 116 104 228 244 320 334 181 258 276 252 244 136 113 111 101 91 91 93 92 93 93 92 92 89 91 94 93 89 87 87 86 84 81 77 75 74 72 71 69 67 64 62 60 58 58 57 55 54 54 54 55 56 56 57 57 52 45 35 32 37 39 34 29 22 21 20 12 351
183 163 196 153 124 156 199 224 188 146 146 232 218 145 119 133 168 173 134 180 262 10 318 268 187 237 273 265 224 123 128 157 143 129 113 103 98 96 97 96 95 95 92 91 93 91 89 88 86 84 79 75 72 69 67 66 64 62 59 56 55 55 56 55 53 51 52 52 52 53 53 53 54 52 48 41 34 38 41 41 37 29 24 21 19 16
248 168 190 142 132 202 215 226 167 148 176 218 182 125 71 89 146 121 126 141 24 25 255 238 187 194 272 291 137 129 158 185 159 139 127 113 105 99 98 98 98 99 96 93 92 91 89 87 83 80 77 74 71 66 62 60 59 58 54 51 50 52 53 52 51 49 49 49 48 48 48 47 48 48 46 42 39 38 38 39 36 31 24 14 8 8
306 67 105 150 187 198 172 143 82 129 159 126 92 49 19 8 25 56 91 96 67 294 247 229 202 185 269 296 206 184 208 171 153 147 139 116 107 104 101 103 103 102 101 98 95 92 89 85 80 77 76 73 68 62 55 53 53 52 51 48 47 50 51 50 49 46 44 42 40 40 39 39 40 40 37 35 34 33 32 34 34 32 26 14 2 354
324 38 260 221 201 159 115 90 27 37 94 97 76 58 28 339 6 31 6 43 103 250 259 240 202 176 213 264 243 302 315 155 149 156 153 126 110 109 107 109 109 108 106 102 99 96 92 87 82 77 72 68 62 55 50 50 51 51 52 49 47 49 49 47 45 42 40 37 36 34 32 31 32 31 29 28 28 27 25 26 29 32 30 24 13 356
274 236 249 254 196 161 120 91 344 359 35 81 83 79 66 343 4 14 313 15 199 246 255 223 138 161 221 250 349 357 350 59 107 122 130 121 114 112 111 113 113 112 108 104 101 96 92 85 78 72 67 63 58 54 54 53 53 54 55 51 49 50 49 45 42 39 37 35 34 32 28 26 25 23 22 23 24 24 23 21 22 24 26 26 22 13
305 300 282 104 279 185 149 142 220 298 95 130 134 131 123 98 40 268 257 253 263 264 256 227 108 246 250 295 26 19 15 75 100 112 119 120 119 118 120 121 117 113 108 103 100 94 87 79 72 67 62 58 57 59 59 59 59 58 56 54 51 51 49 43 39 36 33 33 32 30 27 24 20 17 14 14 16 18 18 17 17 18 20 21 21 17
217 306 239 183 223 174 166 181 174 145 152 179 165 142 143 155 178 225 231 220 250 270 276 276 288 217 211 348 25 50 63 82 100 112 119 120 124 126 128 128 122 116 111 106 100 91 84 79 75 70 66 66 70 71 68 65 62 57 56 57 55 55 53 47 42 39 35 33 30 25 21 18 15 12 8 7 7 7 8 8 7 8 11 13 14 12
185 259 240 197 146 159 172 204 153 112 83 228 146 119 165 192 178 215 248 212 201 272 284 272 252 206 144 82 59 74 73 79 92 105 111 116 126 133 134 132 127 122 117 111 101 92 89 88 88 88 90 91 85 78 71 65 63 60 61 61 59 59 59 56 53 47 41 37 28 21 17 12 9 5 2 0 359 360 360 359 358 358 0 1 1 359
173 262 271 35 56 173 171 178 135 119 190 203 111 171 223 189 147 161 283 264 177 250 253 224 264 305 85 83 68 73 74 83 92 103 113 123 133 138 140 139 136 131 125 116 108 104 106 106 109 108 100 89 78 69 64 62 62 64 64 65 64 65 65 64 62 58 52 45 34 24 14 7 2 357 355 353 351 352 352 350 350 352 351 350 350 349
171 265 269 141 183 239 136 75 39 57 104 138 178 223 238 95 95 112 256 279 255 248 248 240 255 257 225 235 134 100 108 116 121 122 124 133 142 146 148 147 145 139 133 128 124 124 125 125 120 107 87 72 65 61 58 59 61 62 62 59 57 54 53 53 51 51 48 45 42 35 25 14 3 356 351 349 347 346 343 340 341 343 343 343 343 342
137 274 282 240 158 228 68 65 11 11 47 125 186 220 102 89 286 276 168 212 239 251 267 262 252 244 238 217 164 169 174 161 162 151 140 154 162 161 157 154 152 147 146 146 144 144 141 134 118 94 77 64 61 58 55 54 53 51 47 42 38 35 35 34 32 31 28 26 25 22 19 16 8 1 354 350 347 343 339 336 335 336 337 338 337 336
109 133 276 307 77 149 43 59 204 284 8 48 48 5 45 166 193 219 192 180 214 245 266 265 254 251 252 207 175 191 188 167 162 162 173 185 178 170 164 163 163 161 161 162 159 157 153 142 123 94 76 60 58 55 51 45 37 33 28 25 24 22 20 18 16 16 14 13 11 8 5 1 358 356 352 351 349 346 343 339 336 335 333 334 333 330
90 153 235 307 349 49 75 195 179 173 121 58 36 356 290 239 207 254 248 168 165 216 244 255 253 249 263 237 182 188 176 161 166 168 184 192 184 179 176 174 174 173 172 173 171 170 165 156 145 118 96 72 64 53 45 37 28 23 18 15 13 10 7 6 5 5 4 3 1 358 356 353 351 349 347 346 344 342 342 340 339 338 335 333 331 327
134 170 181 270 304 182 221 229 168 153 155 144 159 197 201 207 203 276 270 206 164 195 203 231 260 262 272 303 158 158 150 158 169 167 175 191 192 191 190 187 185 184 187 188 184 181 167 143 128 106 83 69 59 45 37 30 22 17 11 6 3 359 356 355 354 354 354 353 352 351 350 349 348 347 345 344 341 339 338 337 337 336 334 333 331 329
108 116 139 246 244 216 238 253 115 158 179 160 169 206 186 166 143 190 248 234 209 246 147 220 266 260 249 280 121 136 150 163 170 171 178 193 200 201 200 200 199 199 201 197 186 172 146 115 101 79 56 41 32 23 18 14 9 5 1 355 352 349 346 345 345 345 344 344 344 344 344 343 343 342 341 340 339 338 336 334 333 332 331 329 327 326
86 94 131 266 286 299 299 328 17 16 109 147 273 328 163 179 158 173 216 188 184 269 305 298 254 217 233 305 112 134 149 159 173 184 190 196 201 205 208 209 209 205 195 185 175 164 158 150 129 87 46 20 11 4 358 356 353 350 348 346 343 342 340 338 339 339 337 335 335 334 334 334 334 334 333 332 332 332 332 331 330 329 328 326 324 323
139 126 134 190 305 318 331 348 356 2 46 131 251 273 162 173 139 109 134 121 151 236 203 208 246 219 187 347 114 131 142 163 190 200 200 202 206 212 214 211 207 196 178 174 185 198 196 186 177 171 288 327 333 338 340 342 342 341 342 342 340 337 336 333 331 331 329 327 327 328 329 330 330 329 328 327 326 326 326 325 325 325 324 322 321 319
151 160 142 145 206 240 257 253 224 278 29 158 267 292 255 202 188 162 147 175 218 239 191 215 248 255 275 238 160 153 163 189 210 212 211 219 225 223 216 208 197 184 182 195 209 210 205 198 200 208 232 282 310 329 335 336 336 335 333 333 330 325 324 323 322 323 323 323 323 324 324 325 326 325 325 324 323 323 323 322 322 322 321 320 318 316
112 175 176 164 196 223 219 211 193 129 124 258 276 282 272 255 218 174 174 202 208 239 256 247 242 257 278 270 217 177 198 219 230 227 224 229 233 228 215 202 191 188 200 218 216 205 202 203 207 214 232 274 309 323 324 323 323 323 321 320 318 313 313 315 318 319 321 322 321 322 322 324 324 325 325 324 323 323 322 322 321 320 320 319 317 316
91 263 228 174 204 233 212 209 216 91 164 228 252 268 268 263 221 167 189 211 197 223 258 256 251 249 261 267 255 199 205 223 243 251 254 252 241 224 204 190 190 202 218 222 216 213 220 232 243 252 268 288 303 308 311 314 317 320 321 320 316 312 312 313 315 318 322 323 323 323 323 325 326 326 325 323 323 322 321 320 319 318 317 317 316 315
109 237 245 158 216 259 257 256 308 65 207 223 235 254 263 260 243 209 219 223 209 232 257 262 266 262 259 267 271 252 249 257 260 261 267 262 230 199 186 186 196 211 218 219 223 228 239 253 263 270 282 296 303 303 303 304 308 312 314 314 312 309 309 309 311 316 319 319 319 320 321 322 324 323 322 321 320 319 318 317 316 316 315 314 313 312
102 228 251 140 221 274 274 269 284 218 236 256 253 251 256 261 258 241 240 238 221 232 252 262 267 267 264 260 261 271 277 277 257 235 236 213 184 177 181 194 205 215 223 232 242 248 255 262 266 270 281 295 301 302 301 300 301 303 303 302 301 297 295 296 301 307 311 312 313 314 315 317 319 319 318 318 317 316 315 314 313 312 311 310 309 307
91 176 237 102 63 287 262 159 122 241 242 267 270 264 259 262 264 256 252 254 244 242 248 252 260 266 270 272 272 274 273 245 157 156 158 162 170 177 188 199 209 218 227 237 249 260 265 263 264 274 287 299 302 298 294 292 291 291 289 286 282 279 279 285 293 301 305 306 307 309 311 313 315 316 315 315 314 313 312 311 310 309 308 307 306 304
86 165 296 79 68 279 251 129 213 264 274 272 267 262 255 249 249 249 244 236 236 247 254 252 254 259 267 278 276 257 174 149 145 142 145 157 169 180 195 207 217 225 230 235 237 241 251 251 257 273 284 289 288 281 278 277 277 275 273 270 269 272 278 287 294 298 300 302 305 307 310 312 313 313 313 312 312 311 311 310 309 308 307 306 305 304
127 132 171 105 136 271 270 134 184 245 313 277 258 248 246 243 241 243 245 240 234 236 247 249 250 249 242 248 252 195 139 153 163 155 153 161 175 198 220 233 239 238 236 234 225 223 240 254 263 275 281 283 279 276 275 275 273 271 269 271 277 283 290 295 298 301 303 306 308 309 311 311 311 311 311 311 311 311 310 309 308 307 306 305 304 303
153 146 182 161 159 255 255 107 115 213 256 260 225 191 211 222 224 232 241 244 237 227 235 249 254 238 205 199 206 201 192 193 189 180 173 178 203 232 245 250 251 245 235 226 223 236 258 267 274 281 284 286 284 281 279 278 280 286 288 290 293 295 298 301 303 306 308 309 310 311 311 311 311 311 312 312 312 311 310 309 308 307 306 304 302 301
166 163 188 181 158 215 157 100 155 232 238 254 171 175 201 203 209 229 245 250 245 236 240 253 252 218 206 210 218 220 214 206 201 201 197 207 234 250 256 259 255 242 228 225 237 259 271 275 281 281 280 280 279 276 279 286 293 296 296 296 298 300 302 304 306 309 310 311 312 312 313 313 313 314 314 314 313 312 311 310 308 307 305 303 301 298
167 167 180 180 174 185 159 183 223 241 289 303 291 273 251 224 211 230 263 264 250 232 220 226 243 236 223 219 214 209 208 211 231 245 239 237 247 249 254 260 252 235 229 238 255 264 270 274 277 278 278 278 276 278 288 298 301 300 300 300 302 304 306 309 311 312 313 314 314 315 315 316 316 316 317 316 315 314 312 311 309 307 305 302 300 298
161 166 181 195 216 209 197 224 251 328 321 288 275 252 210 226 196 169 233 262 256 230 172 173 212 222 201 193 183 176 184 255 292 276 250 229 240 238 241 246 239 235 242 254 261 263 269 273 275 278 281 281 283 291 301 306 306 305 305 305 306 308 310 313 314 315 315 316 316 317 318 319 319 319 319 318 316 314 313 311 309 307 305 303 301 299
169 185 185 197 244 212 183 239 264 290 272 261 260 246 148 130 136 133 124 289 276 238 176 173 194 193 178 176 171 160 137 38 304 267 195 164 211 223 225 233 239 249 255 257 259 263 268 273 276 280 283 286 293 302 308 308 307 307 307 307 309 311 313 315 315 315 316 316 317 319 321 322 321 321 319 318 316 314 313 311 309 308 306 305 303 301
169 189 176 185 238 216 199 229 228 237 251 245 241 225 139 116 110 95 59 299 267 226 193 182 183 185 183 182 174 160 142 165 257 256 225 193 216 237 253 256 250 252 255 255 260 265 269 274 278 281 285 292 301 306 308 308 307 307 306 308 311 313 314 314 315 315 316 317 320 322 323 323 322 320 319 318 317 316 315 313 312 311 310 308 306 305
142 154 173 194 221 220 222 232 230 241 249 235 223 201 160 125 79 54 347 262 233 216 207 193 188 192 192 187 173 160 173 205 239 270 270 236 232 245 263 273 267 261 259 259 263 266 269 274 277 280 288 297 303 306 307 307 307 305 306 309 312 313 314 314 315 316 317 320 323 324 324 324 323 321 320 320 319 318 317 315 314 313 312 310 309 307
119 144 208 212 223 225 223 229 248 254 223 199 202 187 162 120 56 237 251 245 224 227 223 209 209 206 196 188 181 191 222 234 248 276 276 245 239 249 263 273 272 266 263 261 263 266 268 272 276 283 293 300 303 304 305 305 304 303 306 310 312 313 314 315 316 318 320 323 324 325 325 325 324 322 322 322 322 320 317 316 315 314 313 312 310 309
136 125 241 226 225 227 227 231 260 278 222 187 192 187 164 135 188 225 235 242 233 237 229 214 215 209 199 200 206 217 237 250 259 268 259 246 249 258 264 267 266 262 260 260 260 262 265 270 278 289 297 301 303 303 304 303 301 303 307 310 312 314 315 316 318 319 322 324 325 326 326 325 323 323 324 325 324 320 318 319 318 316 316 315 314 313
165 160 221 228 203 185 220 226 230 276 219 172 164 168 168 178 223 229 220 217 223 232 229 216 215 213 210 214 221 231 248 262 265 261 252 247 253 261 263 264 265 263 260 258 258 262 268 275 284 292 298 300 301 302 302 301 301 305 309 311 313 315 315 317 319 320 322 324 326 326 326 324 324 325 327 327 326 322 322 323 323 321 321 320 319 318
181 164 188 227 188 148 192 219 206 238 214 173 164 185 208 209 224 231 222 218 221 227 230 226 228 230 227 225 229 239 254 263 262 255 246 246 255 260 261 264 264 260 257 257 261 268 274 280 287 293 296 298 300 301 300 301 303 306 310 313 314 315 316 317 318 320 323 325 326 326 324 324 325 328 330 330 329 327 328 329 329 327 326 324 322 320
214 196 197 236 212 155 185 224 198 201 197 180 183 210 227 227 235 239 238 239 237 237 236 234 237 242 240 236 237 245 253 255 252 247 245 253 262 262 261 264 262 259 259 262 268 273 277 283 289 293 295 296 298 299 299 301 305 308 311 314 315 315 316 318 318 321 324 326 326 325 324 325 327 330 332 334 335 335 335 335 333 330 328 326 324 321
238 242 246 271 210 158 224 233 204 206 214 200 205 222 236 242 247 248 246 245 246 248 247 243 246 250 248 242 241 244 248 248 245 244 250 262 267 263 263 263 260 259 262 265 270 274 279 284 289 291 293 295 296 295 297 302 306 310 313 315 315 315 316 317 319 322 325 325 326 326 325 326 329 331 335 340 342 341 341 338 334 331 329 327 325 323
256 250 245 212 229 272 244 200 191 223 250 248 241 238 238 242 247 249 251 253 255 258 258 256 256 254 248 243 242 245 249 248 245 248 254 262 265 264 264 263 261 262 265 268 271 276 280 284 287 289 292 293 292 292 297 303 308 311 314 314 314 315 315 316 319 322 325 326 326 326 327 329 331 333 338 344 346 344 343 340 335 332 330 328 326 325
248 238 231 224 231 240 240 231 232 244 254 258 258 252 246 245 244 245 251 258 263 266 268 268 264 255 249 248 248 248 250 249 247 249 254 259 263 264 263 263 262 263 265 269 273 278 281 284 287 290 292 291 290 294 300 305 310 312 313 313 314 314 314 316 320 322 324 326 326 327 328 331 332 335 340 345 347 345 345 342 337 332 331 331 329 326
237 229 211 202 228 249 259 252 248 254 261 260 257 255 254 253 251 250 254 259 261 265 269 269 267 262 256 255 252 249 249 250 248 248 254 261 263 263 261 262 263 264 267 271 275 277 280 283 286 290 291 290 291 298 303 307 311 313 313 312 312 312 314 317 320 322 324 326 327 328 330 331 334 338 342 345 345 345 346 344 339 333 331 333 333 327
237 237 227 211 240 258 255 239 230 234 255 257 255 256 257 257 257 257 258 259 259 261 264 266 266 264 259 255 252 248 248 249 247 249 257 264 264 261 260 261 262 265 269 272 275 277 280 283 286 288 288 289 294 301 304 308 312 313 311 310 310 311 315 318 320 322 325 327 328 330 331 332 335 340 344 346 345 344 344 345 342 336 331 332 334 331
231 230 226 218 232 245 251 250 240 229 238 254 259 262 264 264 262 258 255 258 260 261 261 260 260 260 257 254 251 248 247 247 248 252 262 266 263 260 259 260 262 266 269 271 274 277 281 284 286 285 285 290 297 301 304 308 312 311 307 307 308 311 315 319 320 322 326 328 328 330 332 332 335 341 346 347 346 344 342 341 341 341 338 335 334 333